Change the Weather History Date:

Monday, April 29, 2013

  Actual Average Record
Temperature  
Mean Temperature 55 °F 56 °F  
Max Temperature 58 °F 67 °F 88 °F (1970)
Min Temperature 52 °F 45 °F 29 °F (1977)
Degree Days  
Heating Degree Days 10 10  
Month to date heating degree days 354 402  
Since 1 July heating degree days 4841 5187  
Cooling Degree Days 0 1  
Month to date cooling degree days 15 2  
Year to date cooling degree days 15 2  
Growing Degree Days 4 (Base 50)    
Moisture  
Dew Point 52 °F    
Average Humidity 72    
Maximum Humidity 96    
Minimum Humidity 47    
Precipitation  
Precipitation 0.27 in 0.12 in 1.40 in (1874)
Month to date precipitation 2.54 3.66  
Year to date precipitation 9.58 12.67  
Sea Level Pressure  
Sea Level Pressure 30.13 in    
Wind  
Wind Speed 7 mph (SE)    
Max Wind Speed 13 mph    
Max Gust Speed 18 mph    
Visibility 6 miles    
Events Rain    
T = Trace of Precipitation, MM = Missing Value Source: NWS Daily Summary

Daily Weather History Graph

Daily Weather History Graph

Search for Another Location

Airport or City:

Trip Planner

Search our weather history database for the weather conditions in past years. The results will help you decide how hot, cold, wet, or windy it might be!

Date:

Astronomy

Apr. 29, 2013 Rise Set
Actual Time 6:05 AM EDT 7:57 PM EDT
Civil Twilight 5:36 AM EDT 8:26 PM EDT
Nautical Twilight 5:00 AM EDT 9:02 PM EDT
Astronomical Twilight 4:22 AM EDT 9:41 PM EDT
Moon No Moon Rise 9:23 AM EDT (4/29)
Length of Visible Light 14h 50m
Length of Day
13h 52m
Waning Gibbous, 80% of the Moon is Illuminated
Apr 29
Waning Gibbous
May 2
Last Quarter
May 9
New
May 18
First Quarter
May 25
Full

Hourly Weather History & Observations

Time (EDT) Temp. Dew Point Humidity Pressure Visibility Wind Dir Wind Speed Gust Speed Precip Events Conditions
12:54 AM 55.0 °F 36.0 °F 49% 30.20 in 10.0 mi SE 6.9 mph - N/A   Overcast
2:54 AM 55.0 °F 39.9 °F 57% 30.17 in 10.0 mi SSE 5.8 mph - N/A   Overcast
3:54 AM 55.0 °F 42.1 °F 62% 30.16 in 10.0 mi ESE 6.9 mph - 0.00 in   Overcast
4:54 AM 54.0 °F 44.1 °F 69% 30.16 in 10.0 mi SSE 6.9 mph - N/A   Overcast
5:27 AM 53.6 °F 46.4 °F 77% 30.14 in 10.0 mi SE 4.6 mph - 0.01 in Rain Light Rain
5:51 AM 53.6 °F 48.2 °F 82% - 8.0 mi ESE 3.5 mph - 0.01 in Rain Light Rain
5:54 AM 53.1 °F 48.9 °F 86% - 8.0 mi ESE 6.9 mph - 0.01 in Rain Light Rain
6:34 AM 51.8 °F 50.0 °F 94% - 3.0 mi Calm Calm - 0.01 in Rain Light Rain
6:54 AM 52.0 °F 50.0 °F 93% - 3.0 mi ESE 5.8 mph - 0.01 in Rain Light Rain
7:54 AM 53.1 °F 51.1 °F 93% - 3.0 mi Calm Calm - 0.01 in Rain Light Rain
8:54 AM 54.0 °F 52.0 °F 93% - 2.5 mi Variable 6.9 mph - 0.03 in Rain Light Rain
9:54 AM 55.0 °F 52.0 °F 89% - 2.5 mi SE 8.1 mph - 0.03 in Rain Light Rain
10:54 AM 55.0 °F 53.1 °F 93% - 2.5 mi ESE 4.6 mph - 0.01 in Rain Light Rain
11:01 AM 55.4 °F 53.6 °F 94% - 2.5 mi SE 6.9 mph - 0.00 in Rain Light Rain
11:35 AM 55.4 °F 53.6 °F 94% - 2.5 mi East 3.5 mph - 0.04 in Rain Light Rain
11:54 AM 55.9 °F 54.0 °F 93% - 2.5 mi ESE 5.8 mph - 0.06 in Rain Light Rain
12:24 PM 55.4 °F 53.6 °F 94% 30.13 in 2.5 mi ESE 5.8 mph - 0.01 in Rain Light Rain
12:31 PM 55.4 °F 53.6 °F 94% 30.12 in 2.5 mi ESE 6.9 mph - 0.02 in Rain Light Rain
12:41 PM 57.2 °F 53.6 °F 88% 30.12 in 2.5 mi ESE 8.1 mph - 0.03 in Rain Light Rain
12:54 PM 57.0 °F 54.0 °F 89% 30.14 in 2.5 mi ESE 8.1 mph - 0.03 in Rain Light Rain
1:54 PM 57.0 °F 55.0 °F 93% 30.13 in 2.5 mi Variable 5.8 mph - 0.02 in Rain Light Rain
2:12 PM 57.2 °F 55.4 °F 94% 30.11 in 2.5 mi SE 9.2 mph - 0.01 in Rain Light Rain
2:39 PM 57.2 °F 55.4 °F 94% 30.10 in 2.5 mi SE 6.9 mph - 0.02 in Rain Light Rain
2:54 PM 57.9 °F 55.9 °F 93% 30.12 in 2.5 mi SE 8.1 mph - 0.03 in Rain Light Rain
3:07 PM 57.2 °F 55.4 °F 94% 30.10 in 2.5 mi ESE 6.9 mph - 0.00 in Rain Light Rain
3:46 PM 57.2 °F 55.4 °F 94% 30.10 in 2.5 mi ESE 6.9 mph - 0.01 in Rain Light Rain
3:54 PM 57.9 °F 55.9 °F 93% 30.11 in 2.5 mi SE 6.9 mph - 0.01 in Rain Light Rain
4:01 PM 57.2 °F 55.4 °F 94% 30.10 in 2.5 mi SSE 8.1 mph - 0.00 in Rain Light Rain
4:37 PM 57.2 °F 55.4 °F 94% 30.09 in 2.5 mi SE 9.2 mph 16.1 mph 0.02 in Rain Light Rain
4:54 PM 57.0 °F 55.0 °F 93% 30.11 in 2.5 mi SE 9.2 mph - 0.02 in Rain Light Rain
5:01 PM 57.2 °F 55.4 °F 94% 30.10 in 2.5 mi SSE 8.1 mph - 0.00 in   Overcast
5:12 PM 57.2 °F 55.4 °F 94% 30.10 in 2.5 mi SSE 9.2 mph - 0.00 in   Overcast
5:20 PM 57.2 °F 55.4 °F 94% 30.10 in 2.5 mi SE 8.1 mph - 0.00 in   Overcast
5:54 PM 57.9 °F 55.0 °F 90% 30.12 in 2.5 mi SSE 9.2 mph - 0.00 in   Overcast
6:01 PM 57.2 °F 53.6 °F 88% 30.10 in 10.0 mi SSE 8.1 mph 18.4 mph N/A   Overcast
6:15 PM 57.2 °F 53.6 °F 88% 30.11 in 10.0 mi SSE 10.4 mph - N/A   Overcast
6:54 PM 57.9 °F 53.1 °F 84% 30.13 in 10.0 mi SSE 6.9 mph - N/A   Overcast
7:17 PM 57.2 °F 53.6 °F 88% 30.11 in 10.0 mi SE 4.6 mph - N/A   Overcast
7:30 PM 57.2 °F 53.6 °F 88% 30.12 in 10.0 mi SE 5.8 mph - N/A   Overcast
7:54 PM 57.0 °F 52.0 °F 83% 30.14 in 10.0 mi SE 8.1 mph - N/A   Overcast
8:54 PM 57.0 °F 53.1 °F 87% 30.15 in 10.0 mi SE 8.1 mph - N/A   Overcast
9:44 PM 57.2 °F 53.6 °F 88% 30.15 in 10.0 mi SE 6.9 mph - N/A   Overcast
9:54 PM 57.0 °F 53.1 °F 87% 30.17 in 10.0 mi SE 8.1 mph - N/A   Overcast
10:01 PM 57.2 °F 53.6 °F 88% 30.16 in 10.0 mi SE 5.8 mph - N/A   Overcast
10:54 PM 55.9 °F 53.1 °F 90% 30.18 in 10.0 mi SE 8.1 mph - N/A   Overcast
11:03 PM 55.4 °F 51.8 °F 88% 30.16 in 10.0 mi SE 8.1 mph - N/A   Overcast
11:30 PM 55.4 °F 51.8 °F 88% 30.16 in 10.0 mi SE 8.1 mph - N/A   Overcast
11:54 PM 55.9 °F 53.1 °F 90% 30.17 in 10.0 mi SE 8.1 mph - N/A   Overcast